AAL1890 KCLT-KMIA

Flight info

Callsign AAL1890
Flight time 1h 40m
Altitude 37000
Route ICONS5 NOOKS WURFL Q83 JEVED Q97 DEBRL CSTAL3
Aircraft B772/H-SDE2E3FGHIJ5LORVWXY/LB1D1

Departure

Time 2026-05-05 02:01
Airport Charlotte Douglas International Airport (KCLT)

Arrival

Time 2026-05-05 03:42
Airport Miami International Airport (KMIA)
Time Latitude Longitude Altitude Speed Heading
2026-05-05 01:29 35.21994 -80.94015 737 ft 0 kts 356°
2026-05-05 01:45 35.21988 -80.94015 736 ft 4 kts 356°
2026-05-05 01:45 35.21962 -80.94013 735 ft 4 kts 349°
2026-05-05 01:46 35.21937 -80.94002 735 ft 4 kts 324°
2026-05-05 01:46 35.21919 -80.93980 735 ft 4 kts 296°
2026-05-05 01:46 35.21911 -80.93949 735 ft 4 kts 268°
2026-05-05 01:46 35.21917 -80.93921 736 ft 2 kts 229°
2026-05-05 01:47 35.21932 -80.93901 734 ft 4 kts 228°
2026-05-05 01:47 35.21940 -80.93890 735 ft 0 kts 228°
2026-05-05 01:52 35.21936 -80.93895 737 ft 5 kts 227°
2026-05-05 01:52 35.21882 -80.93922 737 ft 8 kts 158°
2026-05-05 01:52 35.21873 -80.93857 737 ft 8 kts 68°
2026-05-05 01:52 35.21908 -80.93801 735 ft 8 kts 47°
2026-05-05 01:53 35.21947 -80.93748 737 ft 8 kts 49°
2026-05-05 01:53 35.21952 -80.93741 735 ft 0 kts 49°
2026-05-05 01:53 35.21963 -80.93728 737 ft 5 kts 41°
2026-05-05 01:53 35.21994 -80.93712 737 ft 5 kts
2026-05-05 01:54 35.22028 -80.93714 736 ft 5 kts 355°
2026-05-05 01:54 35.22062 -80.93717 737 ft 5 kts 357°
2026-05-05 01:54 35.22097 -80.93719 737 ft 5 kts 358°
2026-05-05 01:54 35.22131 -80.93721 738 ft 5 kts 355°
2026-05-05 01:55 35.22165 -80.93726 738 ft 5 kts 353°
2026-05-05 01:55 35.22200 -80.93729 738 ft 5 kts 356°
2026-05-05 01:55 35.22234 -80.93732 738 ft 5 kts 357°
2026-05-05 01:55 35.22268 -80.93734 738 ft 5 kts 357°
2026-05-05 01:56 35.22303 -80.93737 737 ft 5 kts 354°
2026-05-05 01:56 35.22337 -80.93741 737 ft 5 kts 354°
2026-05-05 01:56 35.22371 -80.93744 738 ft 5 kts 356°
2026-05-05 01:56 35.22406 -80.93747 738 ft 5 kts 356°
2026-05-05 01:57 35.22440 -80.93750 738 ft 5 kts 355°
2026-05-05 01:57 35.22474 -80.93754 738 ft 5 kts 355°
2026-05-05 01:57 35.22494 -80.93745 738 ft 0 kts 33°
2026-05-05 01:57 35.22495 -80.93744 738 ft 1 kts 38°
2026-05-05 01:58 35.22496 -80.93740 738 ft 0 kts 52°
2026-05-05 02:00 35.22501 -80.93724 739 ft 3 kts 71°
2026-05-05 02:00 35.22504 -80.93695 739 ft 3 kts 87°
2026-05-05 02:00 35.22497 -80.93655 740 ft 9 kts 114°
2026-05-05 02:00 35.22438 -80.93618 739 ft 0 kts 170°
2026-05-05 02:01 35.22380 -80.93609 740 ft 36 kts 174°
2026-05-05 02:01 35.21850 -80.93565 739 ft 117 kts 175°
2026-05-05 02:01 35.20793 -80.93462 823 ft 177 kts 176°
2026-05-05 02:01 35.19605 -80.93331 1953 ft 158 kts 178°
2026-05-05 02:02 35.18609 -80.93148 3382 ft 134 kts 175°
2026-05-05 02:02 35.17675 -80.92937 4163 ft 144 kts 175°
2026-05-05 02:02 35.16609 -80.92712 4718 ft 167 kts 175°
2026-05-05 02:02 35.15380 -80.92470 5286 ft 190 kts 175°
2026-05-05 02:03 35.13988 -80.92213 5791 ft 215 kts 175°
2026-05-05 02:03 35.12414 -80.91940 6315 ft 241 kts 175°
2026-05-05 02:03 35.10667 -80.91650 6986 ft 260 kts 175°
2026-05-05 02:03 35.08822 -80.91347 7723 ft 275 kts 175°
2026-05-05 02:04 35.06903 -80.91034 8006 ft 279 kts 175°
2026-05-05 02:04 35.04973 -80.90721 8008 ft 281 kts 175°
2026-05-05 02:04 35.03027 -80.90406 8074 ft 283 kts 175°
2026-05-05 02:04 35.01073 -80.90189 8800 ft 282 kts 184°
2026-05-05 02:05 34.99120 -80.90466 9785 ft 283 kts 192°
2026-05-05 02:05 34.97167 -80.90897 10636 ft 291 kts 193°
2026-05-05 02:05 34.95109 -80.91358 11016 ft 316 kts 192°
2026-05-05 02:05 34.92903 -80.91824 11801 ft 327 kts 192°
2026-05-05 02:06 34.90624 -80.92275 12729 ft 335 kts 191°
2026-05-05 02:06 34.88292 -80.92711 13781 ft 341 kts 191°
2026-05-05 02:06 34.85922 -80.93137 14767 ft 346 kts 191°
2026-05-05 02:06 34.83528 -80.93557 15776 ft 350 kts 191°
2026-05-05 02:07 34.81094 -80.93979 16811 ft 354 kts 191°
2026-05-05 02:07 34.78642 -80.94402 17792 ft 359 kts 191°
2026-05-05 02:07 34.76143 -80.94833 18697 ft 364 kts 191°
2026-05-05 02:07 34.73661 -80.95260 19515 ft 369 kts 191°
2026-05-05 02:08 34.71115 -80.95699 20370 ft 373 kts 191°
2026-05-05 02:08 34.68528 -80.96144 21237 ft 377 kts 191°
2026-05-05 02:08 34.65926 -80.96590 22077 ft 381 kts 192°
2026-05-05 02:08 34.63283 -80.97041 22831 ft 386 kts 192°
2026-05-05 02:09 34.60595 -80.97436 23075 ft 391 kts 189°
2026-05-05 02:09 34.57878 -80.97714 23069 ft 393 kts 188°
2026-05-05 02:09 34.55151 -80.97950 23067 ft 392 kts 187°
2026-05-05 02:09 34.52435 -80.98178 23061 ft 391 kts 187°
2026-05-05 02:10 34.49724 -80.98411 23057 ft 390 kts 188°
2026-05-05 02:10 34.47015 -80.98651 23057 ft 390 kts 188°
2026-05-05 02:10 34.44304 -80.98897 23069 ft 390 kts 188°
2026-05-05 02:10 34.41602 -80.99146 23070 ft 390 kts 188°
2026-05-05 02:11 34.38897 -80.99398 23084 ft 391 kts 188°
2026-05-05 02:11 34.36140 -80.99658 23531 ft 405 kts 188°
2026-05-05 02:11 34.33341 -80.99922 24488 ft 400 kts 188°
2026-05-05 02:11 34.30577 -81.00179 25505 ft 397 kts 188°
2026-05-05 02:12 34.27820 -81.00439 26243 ft 401 kts 188°
2026-05-05 02:12 34.22159 -81.00965 27507 ft 413 kts 188°
2026-05-05 02:12 34.19282 -81.01232 28201 ft 416 kts 188°
2026-05-05 02:13 34.16387 -81.01500 28910 ft 419 kts 188°
2026-05-05 02:13 34.13464 -81.01773 29534 ft 423 kts 188°
2026-05-05 02:13 34.10548 -81.02045 30131 ft 428 kts 188°
2026-05-05 02:13 34.07560 -81.02324 30635 ft 431 kts 188°
2026-05-05 02:14 34.04549 -81.02605 31177 ft 434 kts 188°
2026-05-05 02:14 34.01535 -81.02883 31719 ft 435 kts 189°
2026-05-05 02:14 33.98510 -81.03155 32245 ft 438 kts 188°
2026-05-05 02:14 33.95450 -81.03231 32729 ft 442 kts 184°
2026-05-05 02:15 33.92355 -81.03196 33166 ft 446 kts 184°
2026-05-05 02:15 33.89244 -81.03146 33606 ft 448 kts 184°
2026-05-05 02:15 33.86117 -81.03096 34003 ft 451 kts 184°
2026-05-05 02:15 33.82961 -81.03052 34338 ft 455 kts 184°
2026-05-05 02:16 33.79775 -81.03013 34604 ft 459 kts 184°
2026-05-05 02:16 33.76599 -81.02981 34863 ft 463 kts 184°
2026-05-05 02:16 33.73363 -81.02950 35131 ft 467 kts 184°
2026-05-05 02:16 33.70100 -81.02921 35413 ft 470 kts 184°
2026-05-05 02:17 33.66816 -81.02891 35726 ft 472 kts 184°
2026-05-05 02:17 33.63526 -81.02861 36073 ft 473 kts 184°
2026-05-05 02:17 33.60231 -81.02830 36399 ft 474 kts 185°
2026-05-05 02:17 33.56927 -81.02800 36736 ft 475 kts 185°
2026-05-05 02:18 33.53615 -81.02770 36996 ft 478 kts 185°
2026-05-05 02:18 33.46920 -81.02711 37098 ft 481 kts 185°
2026-05-05 02:19 33.40279 -81.02647 37096 ft 474 kts 185°
2026-05-05 02:19 33.33671 -81.02587 37081 ft 475 kts 185°
2026-05-05 02:20 33.27053 -81.02530 37094 ft 476 kts 185°
2026-05-05 02:20 33.20423 -81.02473 37093 ft 477 kts 185°
2026-05-05 02:21 33.13772 -81.02414 37094 ft 478 kts 185°
2026-05-05 02:21 33.07167 -81.02355 37090 ft 478 kts 185°
2026-05-05 02:22 33.00506 -81.02296 37097 ft 478 kts 185°
2026-05-05 02:22 32.94932 -81.02247 37098 ft 478 kts 185°
2026-05-05 02:23 32.88283 -81.02189 37098 ft 477 kts 185°
2026-05-05 02:23 32.81693 -81.02131 37075 ft 477 kts 185°
2026-05-05 02:24 32.75054 -81.02075 37096 ft 478 kts 185°
2026-05-05 02:24 32.68393 -81.02019 37101 ft 479 kts 185°
2026-05-05 02:25 32.61721 -81.01964 37102 ft 479 kts 185°
2026-05-05 02:25 32.55045 -81.01910 37072 ft 480 kts 186°
2026-05-05 02:26 32.48358 -81.01918 37100 ft 480 kts 187°
2026-05-05 02:26 32.41671 -81.02054 37109 ft 481 kts 187°
2026-05-05 02:27 32.34985 -81.02184 37104 ft 482 kts 187°
2026-05-05 02:27 32.28282 -81.02292 37084 ft 482 kts 187°
2026-05-05 02:28 32.21563 -81.02386 37109 ft 483 kts 187°
2026-05-05 02:28 32.14878 -81.02503 37108 ft 483 kts 187°
2026-05-05 02:29 32.08148 -81.02633 37081 ft 483 kts 187°
2026-05-05 02:29 32.01406 -81.02758 37026 ft 484 kts 188°
2026-05-05 02:30 31.94722 -81.02902 37068 ft 483 kts 188°
2026-05-05 02:30 31.87950 -81.03102 37082 ft 484 kts 189°
2026-05-05 02:31 31.81206 -81.03308 37082 ft 485 kts 189°
2026-05-05 02:31 31.74495 -81.03509 37051 ft 485 kts 189°
2026-05-05 02:32 31.67745 -81.03711 37086 ft 485 kts 189°
2026-05-05 02:32 31.60993 -81.03915 37108 ft 485 kts 189°
2026-05-05 02:33 31.54248 -81.04185 37090 ft 484 kts 191°
2026-05-05 02:33 31.47527 -81.04631 37060 ft 483 kts 191°
2026-05-05 02:34 31.40816 -81.05083 37098 ft 483 kts 191°
2026-05-05 02:34 31.34106 -81.05515 37104 ft 483 kts 191°
2026-05-05 02:35 31.27391 -81.05941 37107 ft 483 kts 191°
2026-05-05 02:35 31.20695 -81.06275 37046 ft 486 kts 189°
2026-05-05 02:36 31.13917 -81.06358 37100 ft 486 kts 188°
2026-05-05 02:36 31.07149 -81.06441 37104 ft 486 kts 189°
2026-05-05 02:37 31.00379 -81.06570 37106 ft 487 kts 189°
2026-05-05 02:37 30.93599 -81.06716 37107 ft 487 kts 189°
2026-05-05 02:38 30.86823 -81.06862 37101 ft 486 kts 189°
2026-05-05 02:38 30.80053 -81.07008 37105 ft 486 kts 189°
2026-05-05 02:39 30.73323 -81.07154 37104 ft 487 kts 189°
2026-05-05 02:39 30.66549 -81.07304 37108 ft 487 kts 189°
2026-05-05 02:40 30.59741 -81.07485 37107 ft 484 kts 190°
2026-05-05 02:40 30.53056 -81.07873 37111 ft 484 kts 191°
2026-05-05 02:41 30.46333 -81.08314 37108 ft 484 kts 191°
2026-05-05 02:41 30.39592 -81.08735 37108 ft 485 kts 191°
2026-05-05 02:42 30.32851 -81.09139 37110 ft 485 kts 190°
2026-05-05 02:42 30.26109 -81.09539 37107 ft 485 kts 190°
2026-05-05 02:43 30.19371 -81.09939 37108 ft 485 kts 190°
2026-05-05 02:43 30.12634 -81.10340 37110 ft 485 kts 191°
2026-05-05 02:44 30.05941 -81.10739 37097 ft 484 kts 190°
2026-05-05 02:44 29.99231 -81.11125 37109 ft 484 kts 190°
2026-05-05 02:45 29.92501 -81.11529 37122 ft 484 kts 190°
2026-05-05 02:45 29.85777 -81.11943 37119 ft 484 kts 190°
2026-05-05 02:46 29.79024 -81.12287 37098 ft 486 kts 188°
2026-05-05 02:46 29.72231 -81.12283 37096 ft 488 kts 187°
2026-05-05 02:47 29.65440 -81.12289 37104 ft 487 kts 187°
2026-05-05 02:47 29.58658 -81.12358 37106 ft 487 kts 187°
2026-05-05 02:48 29.51889 -81.12507 37060 ft 485 kts 189°
2026-05-05 02:48 29.45196 -81.12775 37105 ft 484 kts 189°
2026-05-05 02:49 29.38467 -81.13043 37096 ft 484 kts 189°
2026-05-05 02:49 29.31722 -81.13285 37101 ft 485 kts 188°
2026-05-05 02:49 29.28318 -81.13077 37100 ft 500 kts 175°
2026-05-05 02:50 29.24967 -81.11941 37089 ft 503 kts 167°
2026-05-05 02:50 29.18299 -81.09177 37114 ft 516 kts 166°
2026-05-05 02:51 29.11500 -81.06478 37108 ft 516 kts 168°
2026-05-05 02:51 29.04687 -81.03918 37100 ft 514 kts 168°
2026-05-05 02:52 28.97941 -81.01423 37100 ft 512 kts 168°
2026-05-05 02:52 28.91113 -80.98896 37070 ft 512 kts 168°
2026-05-05 02:53 28.84297 -80.96380 37097 ft 515 kts 168°
2026-05-05 02:53 28.77498 -80.93867 37080 ft 518 kts 168°
2026-05-05 02:54 28.70713 -80.90955 37071 ft 525 kts 162°
2026-05-05 02:54 28.64046 -80.87610 37028 ft 521 kts 162°
2026-05-05 02:55 28.57410 -80.84355 37071 ft 517 kts 163°
2026-05-05 02:55 28.50767 -80.81194 37076 ft 517 kts 163°
2026-05-05 02:55 28.47439 -80.79630 36952 ft 520 kts 163°
2026-05-05 02:56 28.44077 -80.78060 36498 ft 522 kts 163°
2026-05-05 02:56 28.40730 -80.76486 36050 ft 518 kts 163°
2026-05-05 02:56 28.37426 -80.74915 35611 ft 513 kts 162°
2026-05-05 02:56 28.34180 -80.73361 35441 ft 503 kts 162°
2026-05-05 02:57 28.30939 -80.71819 35388 ft 506 kts 162°
2026-05-05 02:57 28.24357 -80.68734 35321 ft 514 kts 162°
2026-05-05 02:58 28.17704 -80.66083 35228 ft 501 kts 174°
2026-05-05 02:58 28.10923 -80.64241 35146 ft 500 kts 173°
2026-05-05 02:59 28.04175 -80.62218 35005 ft 502 kts 172°
2026-05-05 02:59 27.97424 -80.60155 34906 ft 503 kts 172°
2026-05-05 03:00 27.90662 -80.58118 34815 ft 504 kts 172°
2026-05-05 03:00 27.83885 -80.56094 34725 ft 505 kts 172°
2026-05-05 03:01 27.77098 -80.54070 34646 ft 505 kts 172°
2026-05-05 03:01 27.70328 -80.52051 34532 ft 501 kts 172°
2026-05-05 03:02 27.63683 -80.49998 34036 ft 492 kts 169°
2026-05-05 03:02 27.61517 -80.49193 33630 ft 495 kts 167°
2026-05-05 03:02 27.58283 -80.47886 33242 ft 490 kts 166°
2026-05-05 03:02 27.55136 -80.46568 32586 ft 473 kts 166°
2026-05-05 03:03 27.52107 -80.45294 31807 ft 455 kts 166°
2026-05-05 03:03 27.49190 -80.44088 31073 ft 440 kts 167°
2026-05-05 03:03 27.46333 -80.42936 30362 ft 432 kts 167°
2026-05-05 03:03 27.43519 -80.41815 29600 ft 427 kts 167°
2026-05-05 03:04 27.40732 -80.40715 28762 ft 419 kts 167°
2026-05-05 03:04 27.38009 -80.39643 27798 ft 411 kts 167°
2026-05-05 03:04 27.35334 -80.38594 26861 ft 403 kts 167°
2026-05-05 03:04 27.32709 -80.37565 25952 ft 396 kts 167°
2026-05-05 03:05 27.30127 -80.36554 25078 ft 391 kts 167°
2026-05-05 03:05 27.27565 -80.35553 24535 ft 392 kts 167°
2026-05-05 03:05 27.24974 -80.34540 24360 ft 394 kts 166°
2026-05-05 03:05 27.22417 -80.33530 24185 ft 388 kts 166°
2026-05-05 03:06 27.19898 -80.32534 24028 ft 381 kts 166°
2026-05-05 03:06 27.17403 -80.31554 23789 ft 378 kts 166°
2026-05-05 03:06 27.14926 -80.30587 23442 ft 376 kts 167°
2026-05-05 03:06 27.12453 -80.29626 23030 ft 376 kts 167°
2026-05-05 03:07 27.09986 -80.28673 22699 ft 374 kts 167°
2026-05-05 03:07 27.07526 -80.27738 22380 ft 371 kts 167°
2026-05-05 03:07 27.05092 -80.26808 22091 ft 369 kts 167°
2026-05-05 03:07 27.02671 -80.25875 21788 ft 366 kts 167°
2026-05-05 03:08 27.00264 -80.24942 21478 ft 364 kts 167°
2026-05-05 03:08 26.97878 -80.24016 21166 ft 362 kts 167°
2026-05-05 03:08 26.95501 -80.23095 20870 ft 360 kts 167°
2026-05-05 03:08 26.93136 -80.22178 20580 ft 358 kts 167°
2026-05-05 03:09 26.90820 -80.21274 20282 ft 356 kts 167°
2026-05-05 03:09 26.88486 -80.20366 20000 ft 354 kts 167°
2026-05-05 03:09 26.86162 -80.19467 19716 ft 352 kts 167°
2026-05-05 03:09 26.83850 -80.18598 19432 ft 350 kts 167°
2026-05-05 03:10 26.81539 -80.17745 19106 ft 349 kts 168°
2026-05-05 03:10 26.79237 -80.16898 18813 ft 347 kts 168°
2026-05-05 03:10 26.76944 -80.16053 18559 ft 345 kts 168°
2026-05-05 03:10 26.74676 -80.15213 18299 ft 343 kts 168°
2026-05-05 03:11 26.72433 -80.14381 17987 ft 341 kts 167°
2026-05-05 03:11 26.70183 -80.13590 17680 ft 337 kts 171°
2026-05-05 03:11 26.67920 -80.12968 17396 ft 333 kts 173°
2026-05-05 03:11 26.65667 -80.12393 17095 ft 331 kts 172°
2026-05-05 03:12 26.63420 -80.11805 16810 ft 329 kts 172°
2026-05-05 03:12 26.61196 -80.11209 16529 ft 328 kts 171°
2026-05-05 03:12 26.58988 -80.10620 16252 ft 326 kts 172°
2026-05-05 03:12 26.56755 -80.10058 15969 ft 323 kts 172°
2026-05-05 03:13 26.54574 -80.09519 15679 ft 319 kts 172°
2026-05-05 03:13 26.52407 -80.08984 15324 ft 319 kts 172°
2026-05-05 03:13 26.50267 -80.08453 14944 ft 319 kts 172°
2026-05-05 03:13 26.48097 -80.07911 14564 ft 320 kts 172°
2026-05-05 03:14 26.45920 -80.07369 14180 ft 320 kts 172°
2026-05-05 03:14 26.43734 -80.06890 13786 ft 321 kts 173°
2026-05-05 03:14 26.41533 -80.06434 13350 ft 321 kts 173°
2026-05-05 03:14 26.39337 -80.05972 12994 ft 319 kts 172°
2026-05-05 03:15 26.37208 -80.05433 12858 ft 310 kts 169°
2026-05-05 03:15 26.35129 -80.04842 12717 ft 306 kts 169°
2026-05-05 03:15 26.33066 -80.04259 12596 ft 305 kts 169°
2026-05-05 03:15 26.31007 -80.03687 12460 ft 305 kts 169°
2026-05-05 03:16 26.28945 -80.03119 12350 ft 305 kts 169°
2026-05-05 03:16 26.26916 -80.02562 12221 ft 304 kts 169°
2026-05-05 03:16 26.24849 -80.02255 12065 ft 291 kts 189°
2026-05-05 03:16 26.22891 -80.02690 11998 ft 294 kts 196°
2026-05-05 03:17 26.20875 -80.03182 11855 ft 296 kts 195°
2026-05-05 03:17 26.18869 -80.03648 11727 ft 293 kts 195°
2026-05-05 03:17 26.16881 -80.04107 11616 ft 290 kts 195°
2026-05-05 03:17 26.14908 -80.04562 11488 ft 288 kts 195°
2026-05-05 03:18 26.12955 -80.05011 11357 ft 285 kts 195°
2026-05-05 03:18 26.11014 -80.05455 11237 ft 284 kts 195°
2026-05-05 03:18 26.09085 -80.05895 11118 ft 282 kts 195°
2026-05-05 03:18 26.07152 -80.06335 11003 ft 286 kts 195°
2026-05-05 03:19 26.03228 -80.07347 10541 ft 291 kts 197°
2026-05-05 03:19 26.01273 -80.07859 10298 ft 286 kts 196°
2026-05-05 03:19 25.99353 -80.08355 10056 ft 280 kts 196°
2026-05-05 03:20 25.97478 -80.08840 9821 ft 275 kts 195°
2026-05-05 03:20 25.95626 -80.09307 9559 ft 270 kts 194°
2026-05-05 03:20 25.93810 -80.09758 9333 ft 266 kts 195°
2026-05-05 03:20 25.92138 -80.10501 9085 ft 259 kts 218°
2026-05-05 03:21 25.90851 -80.11915 8926 ft 264 kts 228°
2026-05-05 03:21 25.89605 -80.13438 8691 ft 267 kts 227°
2026-05-05 03:21 25.88433 -80.14994 8429 ft 256 kts 239°
2026-05-05 03:21 25.87902 -80.16851 8245 ft 256 kts 261°
2026-05-05 03:22 25.87806 -80.18846 8054 ft 261 kts 265°
2026-05-05 03:22 25.87750 -80.20851 7731 ft 264 kts 265°
2026-05-05 03:22 25.87690 -80.22881 7393 ft 263 kts 265°
2026-05-05 03:22 25.87625 -80.24904 7070 ft 262 kts 265°
2026-05-05 03:23 25.87556 -80.26923 6738 ft 261 kts 265°
2026-05-05 03:23 25.87604 -80.28890 6374 ft 253 kts 281°
2026-05-05 03:23 25.88331 -80.30692 6110 ft 260 kts 296°
2026-05-05 03:23 25.89185 -80.32460 5769 ft 262 kts 295°
2026-05-05 03:24 25.90039 -80.34244 5421 ft 262 kts 295°
2026-05-05 03:24 25.90904 -80.36033 5089 ft 262 kts 296°
2026-05-05 03:24 25.91768 -80.37815 4757 ft 262 kts 296°
2026-05-05 03:24 25.92626 -80.39598 4406 ft 262 kts 296°
2026-05-05 03:25 25.93471 -80.41379 4083 ft 259 kts 292°
2026-05-05 03:25 25.93831 -80.43338 4007 ft 260 kts 265°
2026-05-05 03:25 25.93694 -80.45344 3993 ft 262 kts 264°
2026-05-05 03:25 25.93617 -80.47339 3978 ft 250 kts 266°
2026-05-05 03:26 25.93526 -80.49197 3962 ft 230 kts 263°
2026-05-05 03:26 25.93395 -80.50879 3966 ft 208 kts 255°
2026-05-05 03:26 25.92752 -80.52205 3967 ft 192 kts 213°
2026-05-05 03:26 25.91510 -80.52684 3994 ft 190 kts 169°
2026-05-05 03:27 25.90312 -80.52122 3651 ft 190 kts 126°
2026-05-05 03:27 25.89789 -80.50783 3530 ft 202 kts 99°
2026-05-05 03:27 25.89325 -80.49255 3398 ft 211 kts 112°
2026-05-05 03:27 25.88730 -80.47789 3307 ft 209 kts 109°
2026-05-05 03:28 25.88139 -80.46307 3146 ft 211 kts 110°
2026-05-05 03:28 25.87457 -80.44843 2892 ft 215 kts 113°
2026-05-05 03:28 25.86728 -80.43417 2627 ft 208 kts 113°
2026-05-05 03:28 25.86027 -80.42063 2354 ft 197 kts 112°
2026-05-05 03:29 25.85365 -80.40771 2102 ft 192 kts 112°
2026-05-05 03:29 25.84710 -80.39498 1851 ft 186 kts 111°
2026-05-05 03:29 25.84082 -80.38275 1670 ft 180 kts 111°
2026-05-05 03:29 25.83461 -80.37075 1437 ft 180 kts 111°
2026-05-05 03:30 25.82849 -80.35890 1157 ft 170 kts 110°
2026-05-05 03:30 25.82287 -80.34784 928 ft 160 kts 109°
2026-05-05 03:30 25.81730 -80.33694 731 ft 160 kts 111°
2026-05-05 03:30 25.81122 -80.32721 621 ft 146 kts 123°
2026-05-05 03:31 25.80684 -80.31741 569 ft 142 kts 113°
2026-05-05 03:31 25.80207 -80.30769 376 ft 145 kts 120°
2026-05-05 03:31 25.79698 -80.29798 96 ft 141 kts 116°
2026-05-05 03:31 25.79234 -80.28868 47 ft 141 kts 118°
2026-05-05 03:32 25.78749 -80.27923 204 ft 147 kts 117°
2026-05-05 03:32 25.78258 -80.27015 734 ft 131 kts 117°
2026-05-05 03:32 25.77846 -80.26119 1016 ft 131 kts 108°
2026-05-05 03:32 25.77689 -80.25093 1277 ft 141 kts 88°
2026-05-05 03:33 25.77906 -80.24034 1711 ft 141 kts 63°
2026-05-05 03:33 25.78544 -80.23186 2042 ft 151 kts 50°
2026-05-05 03:33 25.79277 -80.22239 2281 ft 169 kts 53°
2026-05-05 03:33 25.79973 -80.21195 2765 ft 173 kts 56°
2026-05-05 03:34 25.80741 -80.20094 3002 ft 190 kts 45°
2026-05-05 03:34 25.82027 -80.19439 3026 ft 223 kts
2026-05-05 03:34 25.83646 -80.19662 3045 ft 241 kts 345°
2026-05-05 03:34 25.85208 -80.20195 2997 ft 227 kts 344°
2026-05-05 03:35 25.86647 -80.20687 2990 ft 207 kts 345°
2026-05-05 03:35 25.87973 -80.21146 2967 ft 191 kts 344°
2026-05-05 03:35 25.89217 -80.21579 2986 ft 187 kts 345°
2026-05-05 03:35 25.90422 -80.22110 2991 ft 192 kts 329°
2026-05-05 03:36 25.91317 -80.23202 2993 ft 190 kts 301°
2026-05-05 03:36 25.91975 -80.24459 3002 ft 188 kts 301°
2026-05-05 03:36 25.92655 -80.25708 2996 ft 189 kts 302°
2026-05-05 03:36 25.93378 -80.27037 3048 ft 220 kts 302°
2026-05-05 03:37 25.94193 -80.28550 3033 ft 230 kts 302°
2026-05-05 03:37 25.95017 -80.30090 3002 ft 232 kts 301°
2026-05-05 03:37 25.95535 -80.31766 2996 ft 234 kts 272°
2026-05-05 03:37 25.95179 -80.33471 2837 ft 226 kts 238°
2026-05-05 03:38 25.94504 -80.34327 2646 ft 221 kts 214°
2026-05-05 03:38 25.93192 -80.35173 2415 ft 213 kts 206°
2026-05-05 03:38 25.91893 -80.35956 2127 ft 213 kts 206°
2026-05-05 03:38 25.90555 -80.36752 1801 ft 222 kts 205°
2026-05-05 03:39 25.89175 -80.37520 1608 ft 221 kts 202°
2026-05-05 03:39 25.87803 -80.38217 1370 ft 212 kts 200°
2026-05-05 03:39 25.86455 -80.38763 1313 ft 202 kts 191°
2026-05-05 03:39 25.85078 -80.38860 1259 ft 194 kts 169°
2026-05-05 03:40 25.83911 -80.38384 1218 ft 169 kts 139°
2026-05-05 03:40 25.83247 -80.37364 1030 ft 166 kts 110°
2026-05-05 03:40 25.82845 -80.36135 916 ft 173 kts 107°
2026-05-05 03:40 25.82401 -80.34878 692 ft 178 kts 121°
2026-05-05 03:41 25.81718 -80.33715 627 ft 179 kts 123°
2026-05-05 03:41 25.81094 -80.32531 503 ft 175 kts 118°
2026-05-05 03:41 25.80506 -80.31381 360 ft 169 kts 121°
2026-05-05 03:41 25.79949 -80.30283 115 ft 155 kts 118°
2026-05-05 03:42 25.79454 -80.29317 35 ft 130 kts 116°
2026-05-05 03:42 25.79100 -80.28598 19 ft 51 kts 121°
2026-05-05 03:42 25.78987 -80.28369 28 ft 21 kts 111°
2026-05-05 03:42 25.78996 -80.28276 29 ft 10 kts 41°
2026-05-05 03:43 25.79056 -80.28307 29 ft 13 kts 308°
2026-05-05 03:43 25.79113 -80.28412 27 ft 19 kts 300°
2026-05-05 03:43 25.79193 -80.28548 21 ft 20 kts 304°
2026-05-05 03:43 25.79267 -80.28689 18 ft 15 kts 299°
2026-05-05 03:44 25.79330 -80.28783 17 ft 16 kts 330°
2026-05-05 03:44 25.79445 -80.28801 21 ft 18 kts 358°
2026-05-05 03:44 25.79568 -80.28805 26 ft 18 kts 356°
2026-05-05 03:44 25.79703 -80.28810 28 ft 21 kts 358°
2026-05-05 03:45 25.79844 -80.28820 28 ft 9 kts 358°
2026-05-05 03:45 25.79902 -80.28817 29 ft 8 kts 18°
2026-05-05 03:45 25.79936 -80.28759 26 ft 11 kts 84°
2026-05-05 03:45 25.79940 -80.28651 28 ft 17 kts 86°
2026-05-05 03:46 25.79945 -80.28499 21 ft 22 kts 90°
2026-05-05 03:46 25.79953 -80.28302 20 ft 26 kts 87°
2026-05-05 03:46 25.79962 -80.28095 17 ft 28 kts 87°
2026-05-05 03:46 25.79973 -80.27871 18 ft 29 kts 88°
2026-05-05 03:47 25.79980 -80.27687 25 ft 15 kts 86°
2026-05-05 03:47 25.79983 -80.27579 22 ft 12 kts 99°
2026-05-05 03:47 25.79896 -80.27534 25 ft 15 kts 174°
2026-05-05 03:47 25.79816 -80.27528 26 ft 9 kts 176°
2026-05-05 03:48 25.79795 -80.27527 27 ft 0 kts 177°